Date String (YYYY-MM-DD hh:mm:ss) UTC,Instrument flags,Ambient pressure (hPa),Sample flow (lpm),Bypass flow (lpm),Sample temperature (°C),Ambient temperature (°C),ASC tube jacket temperature (°C),LED temperature (°C),Box temperature (°C),Sample RH (%),Span deviation,Mass concentration (μg/m³),Mass concentration (μg/m³),Mass concentration (μg/m³)
DateTimeUTC,F1_M11,P_M11,Q1_M11,Q2_M11,T1_M11,T2_M11,T3_M11,T4_M11,T5_M11,U1_M11,ZSPAN_M11,X0_M11,X2_M11,X1_M11
2022-06-20 17:00:00,,0824.9,5.00,0.00,29.3,28.3,00.0,38.0,31.3,27.3,0000.0,0008.88,0003.83,0002.93
2022-06-20 17:01:00,,0824.9,5.00,0.00,29.3,28.4,00.0,38.1,31.4,27.2,0000.0,0009.23,0003.85,0002.95
2022-06-20 17:02:00,,0824.9,4.99,0.00,29.4,28.4,00.0,38.1,31.4,27.1,0000.0,0009.25,0003.87,0002.97
2022-06-20 17:03:00,,0824.9,5.00,0.00,29.4,27.7,00.0,38.0,31.2,27.2,0000.0,0008.98,0003.89,0003.00
2022-06-20 17:04:00,,0824.9,5.01,0.00,29.3,27.2,00.0,38.0,31.0,27.3,0000.0,0009.15,0003.95,0003.02
2022-06-20 17:05:00,,0824.9,5.00,0.00,29.2,27.1,00.0,38.0,31.0,27.3,0000.0,0009.09,0003.94,0003.05
2022-06-20 17:06:00,,0824.9,5.00,0.00,29.2,27.2,00.0,38.0,31.0,27.4,0000.0,0009.02,0003.93,0003.04
2022-06-20 17:07:00,,0824.9,4.99,0.00,29.2,27.3,00.0,38.0,31.0,27.4,0000.0,0009.15,0003.96,0003.01
2022-06-20 17:08:00,,0824.9,5.01,0.00,29.2,27.5,00.0,38.0,31.1,27.5,0000.0,0009.22,0003.95,0002.99
2022-06-20 17:09:00,,0824.9,4.99,0.00,29.2,27.7,00.0,38.0,31.1,27.6,0000.0,0009.27,0003.97,0002.98
2022-06-20 17:10:00,,0824.9,4.99,0.00,29.2,27.8,00.0,38.0,31.1,27.6,0000.0,0009.28,0003.97,0002.98
2022-06-20 17:11:00,,0824.9,5.00,0.00,29.2,28.0,00.0,38.0,31.2,27.5,0000.0,0008.59,0003.97,0002.96
2022-06-20 17:12:00,,0824.9,5.00,0.00,29.3,28.1,00.0,38.0,31.3,27.5,0000.0,0008.18,0003.97,0002.95
2022-06-20 17:13:00,,0824.8,5.01,0.00,29.3,28.3,00.0,38.0,31.3,27.3,0000.0,0008.06,0003.93,0002.92
2022-06-20 17:14:00,,0824.6,5.00,0.00,29.3,28.2,00.0,38.0,31.3,27.1,0000.0,0007.92,0003.89,0002.92
2022-06-20 17:15:00,,0824.7,5.00,0.00,29.3,27.5,00.0,38.0,31.1,27.2,0000.0,0007.60,0003.82,0002.90
2022-06-20 17:16:00,,0824.7,5.00,0.00,29.2,27.1,00.0,37.9,31.0,27.2,0000.0,0007.82,0003.81,0002.87
2022-06-20 17:17:00,,0824.7,5.00,0.00,29.2,27.1,00.0,37.9,31.0,27.3,0000.0,0007.86,0003.81,0002.86
2022-06-20 17:18:00,,0824.7,4.98,0.00,29.1,27.2,00.0,37.9,31.0,27.4,0000.0,0007.81,0003.80,0002.87
2022-06-20 17:19:00,,0824.6,4.99,0.00,29.1,27.3,00.0,37.9,31.0,27.5,0000.0,0008.12,0003.82,0002.88
2022-06-20 17:20:00,,0824.7,5.00,0.00,29.1,27.5,00.0,37.9,31.0,27.3,0000.0,0008.41,0003.82,0002.90
2022-06-20 17:21:00,,0824.6,5.01,0.00,29.1,27.7,00.0,37.9,31.1,27.2,0000.0,0008.48,0003.83,0002.90
2022-06-20 17:22:00,,0824.6,5.00,0.00,29.2,27.9,00.0,37.9,31.1,27.2,0000.0,0008.70,0003.82,0002.87
2022-06-20 17:23:00,,0824.7,4.99,0.00,29.2,28.0,00.0,38.0,31.2,27.0,0000.0,0009.00,0003.78,0002.86
2022-06-20 17:24:00,,0824.7,5.00,0.00,29.2,28.1,00.0,38.0,31.2,26.9,0000.0,0009.17,0003.80,0002.85
2022-06-20 17:25:00,,0824.6,5.01,0.00,29.3,28.3,00.0,38.0,31.3,26.8,0000.0,0009.90,0003.80,0002.84
2022-06-20 17:26:00,,0824.6,5.00,0.00,29.3,28.0,00.0,38.0,31.2,26.7,0000.0,0010.05,0003.79,0002.82
2022-06-20 17:27:00,,0824.8,5.00,0.00,29.2,27.3,00.0,37.9,31.0,26.6,0000.0,0010.04,0003.81,0002.80
2022-06-20 17:28:00,,0824.8,5.00,0.00,29.2,27.0,00.0,37.9,30.9,26.6,0000.0,0009.73,0003.81,0002.80
2022-06-20 17:29:00,,0824.7,5.01,0.00,29.1,27.0,00.0,37.9,30.9,26.6,0000.0,0009.82,0003.81,0002.80
2022-06-20 17:30:00,,0824.4,5.00,0.00,29.1,27.1,00.0,37.9,30.9,26.7,0000.0,0010.12,0003.79,0002.79
2022-06-20 17:31:00,,0824.4,5.00,0.00,29.1,27.3,00.0,37.9,30.9,26.5,0000.0,0009.99,0003.79,0002.77
2022-06-20 17:32:00,,0824.4,4.99,0.00,29.1,27.5,00.0,37.9,31.0,26.5,0000.0,0009.88,0003.79,0002.77
2022-06-20 17:33:00,,0824.5,5.01,0.00,29.1,27.7,00.0,37.9,31.0,26.3,0000.0,0009.72,0003.82,0002.78
2022-06-20 17:34:00,,0824.5,5.00,0.00,29.1,27.8,00.0,37.9,31.1,26.3,0000.0,0009.58,0003.88,0002.80
2022-06-20 17:35:00,,0824.5,5.00,0.00,29.1,28.0,00.0,37.9,31.1,26.4,0000.0,0009.66,0003.89,0002.81
2022-06-20 17:36:00,,0824.5,5.01,0.00,29.2,28.1,00.0,37.9,31.2,26.3,0000.0,0009.26,0003.97,0002.81
2022-06-20 17:37:00,,0824.6,5.01,0.00,29.2,28.2,00.0,37.9,31.2,26.2,0000.0,0009.13,0003.96,0002.81
2022-06-20 17:38:00,,0824.6,5.00,0.00,29.2,27.8,00.0,37.9,31.1,26.2,0000.0,0009.14,0003.97,0002.83
2022-06-20 17:39:00,,0824.7,5.00,0.00,29.1,27.2,00.0,37.9,30.9,26.3,0000.0,0009.22,0003.99,0002.85
2022-06-20 17:40:00,,0824.7,5.00,0.00,29.1,27.0,00.0,37.8,30.9,26.3,0000.0,0009.17,0004.02,0002.88
2022-06-20 17:41:00,,0824.7,5.00,0.00,29.1,27.1,00.0,37.8,30.9,26.4,0000.0,0008.72,0004.05,0002.90
2022-06-20 17:42:00,,0824.5,5.00,0.00,29.0,27.2,00.0,37.8,30.9,26.5,0000.0,0009.02,0004.09,0002.94
2022-06-20 17:43:00,,0824.4,4.99,0.00,29.0,27.4,00.0,37.8,30.9,26.5,0000.0,0009.46,0004.09,0002.98
2022-06-20 17:44:00,,0824.5,5.00,0.00,29.1,27.6,00.0,37.8,31.0,26.5,0000.0,0009.44,0004.08,0002.99
2022-06-20 17:45:00,,0824.4,5.01,0.00,29.1,27.7,00.0,37.8,31.0,26.3,0000.0,0009.45,0004.07,0003.00
2022-06-20 17:46:00,,0824.4,5.00,0.00,29.1,27.9,00.0,37.9,31.1,26.4,0000.0,0009.24,0004.04,0003.00
2022-06-20 17:47:00,,0824.4,5.00,0.00,29.1,28.1,00.0,37.9,31.1,26.2,0000.0,0009.47,0004.01,0002.99
2022-06-20 17:48:00,,0824.4,4.99,0.00,29.2,28.2,00.0,37.9,31.2,26.1,0000.0,0010.12,0004.06,0003.01
2022-06-20 17:49:00,,0824.5,5.00,0.00,29.2,28.2,00.0,37.9,31.2,26.2,0000.0,0010.16,0004.03,0003.01
2022-06-20 17:50:00,,0824.4,5.01,0.00,29.2,27.6,00.0,37.9,31.1,26.3,0000.0,0010.10,0004.01,0003.01
2022-06-20 17:51:00,,0824.4,5.00,0.00,29.1,27.1,00.0,37.8,30.9,26.2,0000.0,0010.28,0004.03,0003.02
2022-06-20 17:52:00,,0824.4,5.00,0.00,29.1,27.0,00.0,37.8,30.9,26.2,0000.0,0010.57,0004.04,0003.05
2022-06-20 17:53:00,,0824.4,5.00,0.00,29.0,27.1,00.0,37.8,30.9,26.4,0000.0,0011.02,0004.03,0003.05
2022-06-20 17:54:00,,0824.5,5.00,0.00,29.0,27.3,00.0,37.8,30.9,26.2,0000.0,0010.62,0004.07,0003.04
2022-06-20 17:55:00,,0824.4,5.01,0.00,29.0,27.4,00.0,37.8,31.0,26.0,0000.0,0010.63,0004.09,0003.05
2022-06-20 17:56:00,,0824.5,5.00,0.00,29.1,27.6,00.0,37.8,31.0,26.1,0000.0,0010.47,0004.05,0003.03
2022-06-20 17:57:00,,0824.4,5.01,0.00,29.1,27.8,00.0,37.8,31.0,25.9,0000.0,0010.74,0004.06,0003.03
2022-06-20 17:58:00,,0824.4,5.00,0.00,29.1,28.0,00.0,37.9,31.1,25.4,0000.0,0010.93,0004.08,0003.07
2022-06-20 17:59:00,,0824.4,4.98,0.00,29.1,28.1,00.0,37.9,31.2,24.7,0000.0,0010.42,0004.10,0003.11
